Other Public Products
Issued by NWS Charleston, SC

Current Version | Previous Version | Graphics & Text | Print | Product List | Glossary On
Versions: 1 2 3 4 5 6 7 8 9 10 11 12 13 14 15 16 17 18 19 20 21 22 23 24 25 26 27 28 29 30 31 32 33 34 35 36 37 38 39 40 41 42 43 44 45 46 47 48 49 50
000
FPUS82 KCHS 110112
OPUCHS

TEST...KCHS/KSAV Gateway Observations...TEST
National Weather Service Charleston SC
800 PM EST SAT DEC 10 2016

NOTE: "fair" indicates few or no clouds below 12,000 feet with no
significant weather and/or obstructions to visibility.

SCZ050-WAZ558-NCZ071-TXZ119-213-PAZ071-DCZ001-FLZ074-172-MI076-
NYZ176-178-MAZ016-IL014-TNZ027-NJZ106-GAZ044-MD014-110200-
...Gateway Observations for Charleston International...

CITY           SKY/WX    TMP DP  RH WIND       PRES   REMARKS
Chas Airport   CLEAR     36  28  73 NE5       30.49S WCI  32
Seattle        LGT RAIN  41  38  89 S12       29.84R
Charlotte      CLEAR     33  16  49 SE3       30.48R
Dallas DFW     CLOUDY    48  30  49 S14       30.19F
Dallas Love    CLOUDY    48  28  46 SE14      30.21F
Philladelphia  CLEAR     32  14  47 W8        30.49R WCI  25
Wash National  CLEAR     32  13  45 N15       30.53S WCI  22
Baltimore      CLEAR     28  13  53 W7        30.51S WCI  21
Miami          CLOUDY    71  66  84 NE13G18   30.21R
Detroit        CLOUDY    25  16  68 SW10      30.42S WCI  15
Newark         PTCLDY    31  15  52 W12       30.44R WCI  22
Laguardia      PTCLDY    35  20  54 NW13      30.44R WCI  26
J F K          MOCLDY    35  16  45 NW10      30.45R WCI  27
Boston Logan   CLEAR     23   6  48 N10       30.40R WCI  12
Ft. Lauderdale CLOUDY    74  66  76 NE16G28   30.21R
Chicago O`Hare LGT SNOW  21  19  92 S5        30.37F VSB 1   WCI  15
Chicago Midway LGT SNOW  23  18  81 S7        30.39F FOG     WCI  15
Houston Bush   CLOUDY    52  33  48 SE9       30.30F
Houston Hobby  MOCLDY    53  39  59 E7        30.29F
Nashville      PTCLDY    34  17  50 CALM      30.44F
Atlanta        PTCLDY    41  20  43 SE3       30.42S

$$

GAZ044-118-TXZ119-213-NCZ071-DCZ001-MDZ014-506-PAZ021-071-NJZ106-
NYZ176-178-MAZ106-OHZ011-021-055-MIZ076-KYZ091-ILZ014-INZ047-
MNZ060-110200-
...Gateway Observations for Savannah International...

CITY           SKY/WX    TMP DP  RH WIND       PRES   REMARKS
Savannah Arpt  CLEAR     42  26  53 NE5       30.47R
Atlanta        PTCLDY    41  20  43 SE3       30.42S
Charlotte      CLEAR     33  16  49 SE3       30.48R
Dallas DFW     CLOUDY    48  30  49 S14       30.19F
Houston Bush   CLOUDY    52  33  48 SE9       30.30F
Wash National  CLEAR     32  13  45 N15       30.53S WCI  22
Wash Dulles    CLEAR     27  11  51 NW9       30.52R WCI  18
Baltimore      CLEAR     28  13  53 W7        30.51S WCI  21
Philadelphia   CLEAR     32  14  47 W8        30.49R WCI  25
Newark         PTCLDY    31  15  52 W12       30.44R WCI  22
Laguardia      PTCLDY    35  20  54 NW13      30.44R WCI  26
J F K          MOCLDY    35  16  45 NW10      30.45R WCI  27
Boston         CLEAR     23   6  48 N10       30.40R WCI  12
Pittsburg      FLURRIES  24  17  74 SW5       30.44S WCI  18
Akron          CLOUDY    24  14  65 SW8       30.43F WCI  15
Cleveland      CLOUDY    26  14  60 SW7       30.46F WCI  18
Cincinnati     CLOUDY    28  17  63 SE5       30.44S WCI  23
Columbus         N/A     26  18  73 CALM      30.46F
Detroit        CLOUDY    25  16  68 SW10      30.42S WCI  15
Chicago O`Hare LGT SNOW  21  19  92 S5        30.37F VSB 1   WCI  15
Minneapolis    LGT SNOW  12   7  80 SE8       30.24F WCI   0
Indianapolis   CLOUDY    28  17  63 S6        30.41F WCI  22

$$




USA.gov is the U.S. government's official web portal to all federal, state and local government web resources and services.